Location: Henham
(51.9333°N, 0.2500°E)
Time: 16:41:43
(UTC+00:00)

STARLINK-81 - Pass Details

Date: 23 October 2019
Orbit: 549 x 551 km, 53.0° (Epoch: 20 November)

Event Time Altitude Azimuth Distance (km) Brightness Sun altitude
Rises 19:07:55 0° 285° (WNW) 2,721 8.7 -22.0°
Reaches altitude 10° 19:10:09 10° 284° (WNW) 1,826 7.4 -22.4°
Enters shadow 19:14:18 76° 200° (SSW) 571 3.6 -23.0°
